[[{"header":{"parameterUnit":"m.s-1","parameterCategory":1,"la1":30.2991,"la2":30.254,"lo1":-89.0895,"lo2":-89.0444,"dy":0.0017,"dx":0.0017,"nx":28,"ny":28,"refTime":"2024-10-18T09:00:00:Z","depth":0,"parameterNumber":2,"parameterNumberName":"U-component_of_WINDS"},"data":[0,0,0,0,0,0,0,0,0,0,0,0,0,0,0,0,0,0,0,0,0,0,0,0,0,0,0,0,0,0,0,0,0,0,0,0,0,0,0,0,0,0,0,0,0,0,0,0,0,0,0,0,0,0,0,0,0,0,-4.6221,-4.6221,0,-4.6193,-4.6193,-4.6193,-4.5965,-4.5959,-4.5954,-4.5948,-4.5923,-4.5927,-4.5932,0,0,0,0,0,0,0,0,0,0,0,0,0,-4.6079,-4.6083,-4.6221,-4.6221,-4.6221,-4.6194,-4.6193,-4.6193,-4.5966,-4.5959,-4.5952,-4.5946,-4.5922,-4.5927,-4.5932,0,0,0,0,0,0,0,0,0,0,0,0,0,-4.6105,-4.6084,-4.6221,-4.6104,-4.6093,-4.6194,-4.6193,-4.6193,-4.5967,-4.5959,-4.595,-4.5943,-4.592,-4.5926,-4.5933,-4.6145,0,0,-4.5954,-4.5957,0,0,0,0,0,0,0,0,-4.6104,-4.6111,-4.6122,-4.6112,-4.61,-4.6074,-4.6133,-4.6177,-4.597,-4.6015,-4.5948,-4.5938,-4.598,-4.5982,-4.5995,-4.6144,-4.6143,-4.5955,-4.5959,-4.5962,-4.5964,0,0,0,0,0,0,0,-4.6103,-4.6111,-4.621,-4.6122,-4.6109,-4.6053,-4.6048,-4.6141,-4.6046,-4.6011,-4.5994,-4.5994,-4.5973,-4.5989,-4.5993,-4.6142,-4.5955,-4.5961,-4.5965,-4.5968,-4.6461,-4.647,0,0,0,0,0,0,-4.6117,-4.6111,-4.6211,-4.6209,-4.6081,-4.6063,-4.6056,-4.6091,-4.6044,-4.6029,-4.6001,-4.5983,-4.5981,-4.5985,-4.5991,-4.6234,-4.5962,-4.5968,-4.5972,-4.6452,-4.6463,-4.6473,0,0,0,0,0,0,-4.6115,-4.6128,-4.6212,-4.6156,-4.6162,-4.6074,-4.6115,-4.6095,-4.6111,-4.6037,-4.6019,-4.6035,-4.5975,-4.5981,-4.6108,-4.623,-4.5971,-4.5978,-4.6442,-4.6456,-4.6468,-4.6724,0,0,0,0,0,0,-4.6112,-4.6129,-4.6208,-4.6159,-4.6166,-4.633,-4.6122,-4.6101,-4.6123,-4.6099,-4.6064,-4.605,-4.5969,-4.6099,-4.6115,-4.6235,-4.5983,-4.643,-4.6448,-4.6464,-4.6704,-4.6744,-4.6779,0,0,0,0,0,-4.6107,-4.6282,-4.6213,-4.6226,-4.6263,-4.6337,-4.6341,-4.6243,-4.6134,-4.6212,-4.6165,-4.6051,-4.6215,-4.6114,-4.6129,-4.6254,-4.6422,-4.6443,-4.6463,-4.6687,-4.6736,-4.6778,0,0,0,0,0,0,-4.6349,-4.6273,-4.6196,-4.636,-4.6357,-4.6298,-4.6395,-4.6299,-4.6327,-4.6304,-4.6183,-4.6177,-4.6322,-4.63,-4.6189,-4.6455,-4.6299,-4.6323,-4.6464,-4.651,-4.6547,-4.6548,-4.5989,0,0,0,0,0,-4.6421,-4.6487,-4.6417,-4.6569,-4.6571,-4.6484,-4.6513,-4.6438,-4.643,-4.6427,-4.6388,-4.6386,-4.6436,-4.6472,-4.6514,-4.67,-4.6688,-4.6793,-4.6831,-4.6862,-4.6884,-4.6979,-4.7025,-4.6539,-4.6539,-4.6539,0,0,-4.6571,-4.6538,-4.6587,-4.6616,-4.6605,-4.6676,-4.6484,-4.6568,-4.6619,-4.644,-4.6556,-4.6528,-4.6517,-4.6674,-4.6741,-4.666,-4.7016,-4.6888,-4.6913,-4.6918,-4.7005,-4.7051,-4.7092,-4.6553,-4.6551,-4.6548,0,0,-4.688,-4.6862,-4.6985,-4.6977,-4.6961,-4.6902,-4.6933,-4.6889,-4.6863,-4.6977,-4.6844,-4.6904,-4.6994,-4.6991,-4.7001,-4.7309,-4.7205,-4.7326,-4.7521,-4.7616,-4.7654,-4.7687,-4.7795,-4.7836,-4.7349,-4.735,-4.735,0,-4.7068,-4.7169,-4.7061,-4.7152,-4.7169,-4.7009,-4.7133,-4.7131,-4.7131,-4.7146,-4.7056,-4.7164,-4.7146,-4.7299,-4.7374,-4.7388,-4.7418,-4.7329,-4.7657,-4.7689,-4.7719,-4.7821,-4.7862,-4.7364,-4.7363,-4.7361,-4.736,0,-4.7401,-4.7473,-4.7574,-4.7576,-4.7604,-4.7712,-4.7621,-4.7662,-4.7586,-4.7536,-4.7655,-4.7627,-4.766,-4.7691,-4.7618,-4.7834,-4.7784,-4.7678,-4.7517,-4.7781,-4.7875,-4.7913,-4.7385,-4.738,-4.7376,-4.7372,0,0,-4.786,-4.78,-4.7839,-4.7838,-4.7809,-4.7863,-4.7963,-4.7994,-4.8032,-4.8038,-4.8118,-4.8198,-4.8099,-4.8111,-4.8036,-4.8119,-4.8363,-4.8001,-4.7999,-4.8068,-4.8598,-4.8677,-4.8724,-4.8294,-4.8301,-4.8307,-4.8598,0,-4.8155,-4.8322,-4.8227,-4.8407,-4.8472,-4.8321,-4.8408,-4.8401,-4.8358,-4.8407,-4.8359,-4.8417,-4.8282,-4.8288,-4.8364,-4.8317,-4.8467,-4.8295,-4.8368,-4.8371,-4.8373,-4.8773,-4.8857,-4.9133,-4.8634,-4.864,-4.8645,0,-4.8522,-4.8541,-4.8728,-4.8685,-4.8709,-4.8789,-4.8809,-4.8858,-4.8846,-4.8809,-4.8823,-4.8727,-4.8823,-4.8666,-4.8796,-4.8681,-4.8705,-4.8687,-4.8695,-4.8697,-4.8523,-4.8784,-4.9219,-4.926,-4.8702,-4.8697,-4.8693,0,-4.8836,-4.8909,-4.9029,-4.9033,-4.8987,-4.9047,-4.903,-4.901,-4.9034,-4.9053,-4.9068,-4.9099,-4.9115,-4.9141,-4.9056,-4.895,-4.9198,-4.9034,-4.9169,-4.9172,-4.9226,-4.9224,-4.967,-4.9246,-4.9246,-4.9245,-4.9244,0,-4.9174,-4.9294,-4.9169,-4.9244,-4.9373,-4.9264,-4.9395,-4.9363,-4.9346,-4.9411,-4.9284,-4.9349,-4.9233,-4.9287,-4.9221,-4.9338,-4.9347,-4.932,-4.9301,-4.933,-4.9334,-4.9343,-4.9321,-4.9256,-4.9253,-4.9251,-4.9249,0,-4.9546,-4.9468,-4.9588,-4.9535,-4.9524,-4.9622,-4.9575,-4.9642,-4.959,-4.9675,-4.9688,-4.9608,-4.9664,-4.9582,-4.963,-4.9585,-4.9746,-4.9699,-4.975,-4.9735,-4.9874,-4.9862,-5.0341,-5.0397,-4.994,-4.9944,-4.9948,0,-4.9766,-4.9854,-4.9809,-4.9843,-4.9834,-4.9891,-4.9914,-4.9811,-4.9841,-4.9834,-4.9902,-4.9947,-4.9976,-5.0073,-5.0019,-5.0055,-5.0006,-5.0172,-5.001,-5.0037,-5.0006,-5.0001,-5.0009,-5.0204,-5.021,-5.0214,-5.0218,0,-5.0164,-5.0121,-5.0159,-5.0185,-5.0217,-5.0233,-5.0239,-5.0275,-5.0166,-5.0207,-5.0261,-5.0284,-5.0332,-5.0378,-5.04,-5.0383,-5.0284,-5.0269,-5.0302,-5.0332,-5.0357,-5.0343,-4.9838,-5.0258,-5.0254,-5.0251,-5.0249,-5.0247,-5.0465,-5.0535,-5.0514,-5.0561,-5.0555,-5.0564,-5.0623,-5.0579,-5.0622,-5.0651,-5.0588,-5.0659,-5.0644,-5.0663,-5.0658,-5.0711,-5.0639,-5.0687,-5.0699,-5.0712,-5.0733,-5.0351,-5.0716,-5.0714,-5.0713,-5.0712,-5.0711,0,-5.0854,-5.0833,-5.0878,-5.0889,-5.0927,-5.0829,-5.0831,-5.0869,-5.0931,-5.0926,-5.0958,-5.1021,-5.1065,-5.1015,-5.105,-5.1103,-5.1058,-5.1115,-5.1109,-5.1107,-5.0796,-5.0763,-5.1151,-5.1151,-5.1151,-5.1151,-5.1151,-5.115,-5.1061,-5.1174,-5.1129,-5.1238,-5.1216,-5.1283,-5.1292,-5.13,-5.1294,-5.137,-5.1405,-5.1372,-5.1349,-5.1381,-5.1417,-5.1401,-5.1419,-5.1493,-5.1461,-5.1172,-5.1129,-5.1088,-5.1056,-5.1498,-5.1499,-5.1766,-5.1769,-5.1771]},{"header":{"parameterUnit":"m.s-1","parameterCategory":1,"la1":30.2991,"la2":30.254,"lo1":-89.0895,"lo2":-89.0444,"dy":0.0017,"dx":0.0017,"nx":28,"ny":28,"refTime":"2024-10-18T09:00:00:Z","depth":0,"parameterNumber":3,"parameterNumberName":"V-component_of_WINDS"},"data":[0,0,0,0,0,0,0,0,0,0,0,0,0,0,0,0,0,0,0,0,0,0,0,0,0,0,0,0,0,0,0,0,0,0,0,0,0,0,0,0,0,0,0,0,0,0,0,0,0,0,0,0,0,0,0,0,0,0,-1.8923,-1.8924,0,-1.9019,-1.902,-1.9021,-1.9074,-1.9074,-1.9074,-1.9074,-1.917,-1.9172,-1.9174,0,0,0,0,0,0,0,0,0,0,0,0,0,-1.8781,-1.8783,-1.8923,-1.8924,-1.8925,-1.9019,-1.902,-1.9021,-1.9074,-1.9074,-1.9074,-1.9074,-1.9169,-1.9172,-1.9175,0,0,0,0,0,0,0,0,0,0,0,0,0,-1.8856,-1.8784,-1.8923,-1.8963,-1.8967,-1.9018,-1.902,-1.9022,-1.9074,-1.9074,-1.9074,-1.9074,-1.9168,-1.9171,-1.9175,-1.9193,0,0,-1.9186,-1.9188,0,0,0,0,0,0,0,0,-1.8852,-1.8861,-1.8956,-1.896,-1.8965,-1.9035,-1.9005,-1.9079,-1.9074,-1.9033,-1.9074,-1.9075,-1.9124,-1.9132,-1.9149,-1.9197,-1.9201,-1.9186,-1.9188,-1.919,-1.9191,0,0,0,0,0,0,0,-1.8846,-1.8857,-1.8961,-1.8957,-1.8963,-1.8974,-1.8985,-1.9019,-1.9076,-1.9037,-1.9041,-1.9052,-1.9127,-1.9145,-1.9152,-1.9202,-1.9186,-1.9189,-1.9192,-1.9193,-1.9267,-1.9267,0,0,0,0,0,0,-1.8835,-1.8853,-1.8958,-1.8964,-1.8908,-1.8977,-1.8989,-1.9012,-1.9076,-1.9086,-1.9051,-1.9054,-1.9139,-1.9147,-1.9155,-1.9179,-1.919,-1.9193,-1.9195,-1.9267,-1.9267,-1.9267,0,0,0,0,0,0,-1.8832,-1.8844,-1.8954,-1.8909,-1.8924,-1.8979,-1.9004,-1.9014,-1.9032,-1.9087,-1.9097,-1.906,-1.914,-1.915,-1.9182,-1.9183,-1.9195,-1.9198,-1.9268,-1.9267,-1.9267,-1.9226,0,0,0,0,0,0,-1.8828,-1.8843,-1.8851,-1.8909,-1.8926,-1.8981,-1.9004,-1.9016,-1.9039,-1.9043,-1.9098,-1.9107,-1.9141,-1.9177,-1.9186,-1.9188,-1.9201,-1.9268,-1.9267,-1.9267,-1.9228,-1.9225,-1.9222,0,0,0,0,0,-1.8822,-1.8836,-1.8851,-1.8864,-1.8938,-1.8981,-1.8991,-1.903,-1.9039,-1.9047,-1.9081,-1.9105,-1.9181,-1.918,-1.9191,-1.9193,-1.9268,-1.9268,-1.9267,-1.9229,-1.9225,-1.9222,0,0,0,0,0,0,-1.8776,-1.8844,-1.8862,-1.8895,-1.8932,-1.899,-1.9002,-1.9025,-1.9059,-1.9061,-1.9107,-1.9119,-1.9147,-1.9173,-1.9171,-1.9212,-1.9227,-1.9229,-1.9194,-1.9191,-1.9188,-1.9181,-1.9204,0,0,0,0,0,-1.877,-1.88,-1.8857,-1.8881,-1.8898,-1.8946,-1.8966,-1.8993,-1.9033,-1.9048,-1.9086,-1.9122,-1.9154,-1.9174,-1.9206,-1.9232,-1.9243,-1.9239,-1.9236,-1.9233,-1.9234,-1.9247,-1.9246,-1.9266,-1.9266,-1.9266,0,0,-1.8757,-1.8798,-1.8814,-1.8872,-1.8904,-1.8932,-1.8959,-1.8989,-1.901,-1.9052,-1.9086,-1.9113,-1.9157,-1.9185,-1.92,-1.9209,-1.9231,-1.9233,-1.923,-1.9233,-1.9247,-1.9245,-1.9243,-1.9265,-1.9265,-1.9265,0,0,-1.8749,-1.8783,-1.8806,-1.8836,-1.8884,-1.8915,-1.892,-1.8974,-1.8995,-1.9029,-1.9061,-1.9085,-1.914,-1.9169,-1.9191,-1.919,-1.9213,-1.9199,-1.9184,-1.9196,-1.9195,-1.9193,-1.9192,-1.9191,-1.92,-1.92,-1.92,0,-1.8727,-1.8773,-1.8814,-1.8842,-1.8865,-1.8905,-1.8927,-1.8954,-1.9009,-1.9024,-1.9033,-1.91,-1.9133,-1.9167,-1.9167,-1.9184,-1.919,-1.9194,-1.9192,-1.9191,-1.919,-1.9189,-1.9189,-1.9198,-1.9198,-1.9198,-1.9198,0,-1.8743,-1.8773,-1.8785,-1.8838,-1.8863,-1.8887,-1.893,-1.895,-1.8974,-1.9004,-1.9036,-1.9076,-1.9116,-1.9126,-1.915,-1.9164,-1.9167,-1.9183,-1.9199,-1.9186,-1.9186,-1.9186,-1.9195,-1.9196,-1.9196,-1.9197,0,0,-1.871,-1.8783,-1.8787,-1.881,-1.8864,-1.8888,-1.8912,-1.8952,-1.8968,-1.9003,-1.9024,-1.9068,-1.9083,-1.9107,-1.9134,-1.9145,-1.914,-1.916,-1.9161,-1.9154,-1.9156,-1.9143,-1.9142,-1.9155,-1.9155,-1.9155,-1.9152,0,-1.8709,-1.8757,-1.8794,-1.8827,-1.8855,-1.8891,-1.8912,-1.8946,-1.8974,-1.9,-1.9031,-1.9061,-1.9078,-1.9093,-1.9105,-1.9138,-1.9141,-1.9139,-1.9174,-1.9174,-1.9162,-1.9142,-1.913,-1.9125,-1.9152,-1.9152,-1.9152,0,-1.8715,-1.8749,-1.8785,-1.8834,-1.8847,-1.8866,-1.8904,-1.8929,-1.8967,-1.8986,-1.9012,-1.904,-1.9066,-1.9078,-1.9113,-1.911,-1.9127,-1.9144,-1.9145,-1.915,-1.9162,-1.9146,-1.9124,-1.9123,-1.9153,-1.9152,-1.9152,0,-1.8687,-1.8742,-1.877,-1.8789,-1.8846,-1.8858,-1.8882,-1.8921,-1.8942,-1.8974,-1.8988,-1.9023,-1.9042,-1.9067,-1.9102,-1.9108,-1.9133,-1.9149,-1.9149,-1.9147,-1.9153,-1.9152,-1.9133,-1.9163,-1.9163,-1.9163,-1.9163,0,-1.8682,-1.8702,-1.8758,-1.8775,-1.8798,-1.8838,-1.8859,-1.8887,-1.892,-1.8942,-1.8975,-1.8995,-1.904,-1.9064,-1.9092,-1.9116,-1.9124,-1.9139,-1.9146,-1.9136,-1.9134,-1.9148,-1.9149,-1.9163,-1.9163,-1.9163,-1.9163,0,-1.8655,-1.8693,-1.8726,-1.8777,-1.879,-1.8804,-1.8847,-1.8864,-1.8893,-1.892,-1.8928,-1.8973,-1.9003,-1.904,-1.9083,-1.9101,-1.9122,-1.9133,-1.9109,-1.9113,-1.911,-1.911,-1.9099,-1.9099,-1.913,-1.9129,-1.9129,0,-1.865,-1.8666,-1.8718,-1.8735,-1.8758,-1.8786,-1.8807,-1.8846,-1.8866,-1.8909,-1.892,-1.8953,-1.8981,-1.9027,-1.9063,-1.9094,-1.9106,-1.91,-1.9111,-1.91,-1.9105,-1.9103,-1.9104,-1.9097,-1.9097,-1.9096,-1.9096,0,-1.8636,-1.8653,-1.8682,-1.8717,-1.8741,-1.877,-1.8801,-1.8812,-1.8857,-1.8878,-1.8909,-1.8931,-1.8973,-1.9004,-1.904,-1.9064,-1.9087,-1.9092,-1.9093,-1.9083,-1.9069,-1.9075,-1.9101,-1.9092,-1.9093,-1.9093,-1.9093,-1.9093,-1.8619,-1.8634,-1.8673,-1.8703,-1.873,-1.8757,-1.8775,-1.8805,-1.8832,-1.887,-1.8891,-1.8921,-1.8956,-1.9006,-1.9028,-1.9051,-1.906,-1.9063,-1.9063,-1.9063,-1.9059,-1.9065,-1.9058,-1.9058,-1.9059,-1.9059,-1.9059,0,-1.8606,-1.8632,-1.866,-1.8701,-1.8724,-1.8743,-1.8777,-1.8795,-1.8821,-1.8852,-1.8879,-1.8913,-1.8943,-1.898,-1.9012,-1.9023,-1.9034,-1.903,-1.9029,-1.9034,-1.905,-1.9046,-1.902,-1.902,-1.902,-1.902,-1.902,-1.902,-1.8602,-1.8629,-1.865,-1.8688,-1.8714,-1.8744,-1.8761,-1.8786,-1.881,-1.8847,-1.8872,-1.8896,-1.8928,-1.8962,-1.899,-1.8999,-1.9009,-1.9002,-1.9014,-1.9029,-1.9033,-1.9036,-1.9032,-1.9004,-1.9004,-1.8996,-1.8996,-1.8996]}]]